Location: Island
(46.9861°N, 93.0135°W)
Time: 12:43:44
(UTC+00:00)

ISS - Visible Passes

Search period start: 06 December 2019 00:00
Search period end: 16 December 2019 00:00
Orbit: 411 x 421 km, 51.6° (Epoch: 06 December)

Date Brightness Start Highest point End Pass type
(mag) Time Alt. Az. Time Alt. Az. Time Alt. Az.
06 Dec -3.7 00:25:02 10° WNW 00:28:08 69° NNW 00:28:08 69° NNW visible
06 Dec -3.6 23:36:33 10° WNW 23:39:52 56° NNE 23:41:52 21° E visible
07 Dec -1.1 01:13:27 10° WNW 01:14:48 20° W 01:14:48 20° W visible
08 Dec -3.1 00:24:50 10° WNW 00:28:07 52° SSW 00:28:41 45° S visible
08 Dec -3.7 23:36:17 10° WNW 23:39:39 80° SSW 23:42:46 12° ESE visible
09 Dec -0.8 01:13:59 10° W 01:15:43 15° SW 01:15:43 15° SW visible
10 Dec -1.4 00:24:53 10° W 00:27:36 23° SW 00:30:06 11° S visible
10 Dec -2.1 23:36:06 10° WNW 23:39:12 35° SW 23:42:19 10° SSE visible
12 Dec -0.6 23:36:27 10° W 23:38:33 16° SW 23:40:38 10° S visible
